Regional Weather Roundup
Issued by NWS State College, PA

Home | Current Version | Previous Version | Graphics & Text | Print | Product List | Glossary On
Versions: 1 2 3 4 5 6 7 8 9 10 11 12 13 14 15 16 17 18 19 20 21 22 23 24 25 26 27 28 29 30 31 32 33 34 35 36 37 38 39 40 41 42 43 44 45 46 47 48 49 50
000
ASUS41 KCTP 271410
RWRCTP

REGIONAL WEATHER ROUNDUP
NATIONAL WEATHER SERVICE STATE COLLEGE PA
1000 AM EDT WED JUL 27 2016

Note: "fair" indicates few or no clouds below 12,000 feet with no
significant weather and/or obstructions to visibility.

* = STATION THAT DOES NOT REPORT PRECIPITATION /E.G. RAIN...SNOW...ETC/
    THUNDER OR FOG.

PAZ002>004-007>009-013>016-020>023-029>032-271500-
WESTERN PENNSYLVANIA

CITY           SKY/WX    TMP DP  RH WIND       PRES   REMARKS
ERIE           SUNNY     79  62  56 SW8       30.02S
MEADVILLE      SUNNY     73  58  59 S5        30.06S
FRANKLIN*      SUNNY     75  61  60 CALM      30.08F
NEW CASTLE     FAIR      76  64  66 CALM      30.06S
BEAVER COUNTY  PTSUNNY   75  59  57 CALM      30.06S
BUTLER*        SUNNY     77  61  57 N3        30.08S
PITTSBURGH INT PTSUNNY   75  61  61 CALM      30.05S
PITTSBURGH     CLOUDY    75  63  66 CALM      30.05R
INDIANA*       SUNNY     77  63  61 CALM      30.09S
LATROBE        PTSUNNY   73  64  73 NE6       30.06S
WASHINGTON CO* PTSUNNY   75  64  69 CALM      30.05F
$$

PAZ004>006-010>012-017>019-024>028-033>037-041-042-045-046-049>053-271500-
CENTRAL PENNSYLVANIA

CITY           SKY/WX    TMP DP  RH WIND       PRES   REMARKS
BRADFORD       SUNNY     74  58  57 CALM      30.08F
DUBOIS         PTSUNNY   74  58  57 N3        30.07S
CLEARFIELD     SUNNY     75  61  61 CALM      30.06F
JOHNSTOWN      CLOUDY    73  57  57 W6        30.09R
ALTOONA          N/A    N/A N/A N/A CALM      30.06S
STATE COLLEGE  SUNNY     75  63  64 CALM      30.05S
WILLIAMSPORT   SUNNY     77  61  57 SW6       30.00F
SELINSGROVE    SUNNY     79  68  69 CALM      30.01S
FT INDIANTOWN  SUNNY     82  63  51 CALM      29.99S
CAPITAL CITY   SUNNY     83  62  49 VRB6      29.98S
HARRISBURG     SUNNY     83  64  52 CALM      29.97F
YORK           MOSUNNY   82  64  54 VRB3      29.98F
$$

PAZ038>040-043-044-047-048-054-055-060>062-067>071-271500-
EASTERN PENNSYLVANIA

CITY           SKY/WX    TMP DP  RH WIND       PRES   REMARKS
SCRANTON       SUNNY     78  62  57 E3        30.01F
MOUNT POCONO   SUNNY     76  54  46 CALM      30.04F
ALLENTOWN      SUNNY     82  65  56 CALM      29.98F
QUAKERTOWN*    SUNNY     82  64  54 CALM      29.99F
READING        SUNNY     84  62  47 NW5       29.97S
LANCASTER      SUNNY     82  65  56 VRB3      29.97F
COATESVILLE    SUNNY     81  64  57 E8        29.99F
POTTSTOWN      SUNNY     83  65  54 VRB5      29.98F
BLUE BELL      SUNNY     81  64  57 E3        29.96F
DOYLESTOWN     MOSUNNY   79  62  56 CALM      29.97F
WILLOW GROVE   NOT AVBL
NORTH PHILA    SUNNY     84  66  54 E7        29.97F
PHILADELPHIA   MOSUNNY   85  65  51 E7        29.95F
$$




USA.gov is the U.S. government's official web portal to all federal, state and local government web resources and services.